Terug naar catalogus

COSMOS 2074

ActiefNavigatiePO
NORAD 20577·PAYLOAD·🇷🇺 Russia

Gelanceerd Apr 20, 1990 vanaf Plesetsk Cosmodrome

Loading…

Volgende Passages (komende 24 uur)

TLE

VersSource: Space-Track

Epoch: Sep 14, 2026, 15:38 UTC

1 20577U 90036A   26257.65186466  .00000044  00000-0  30484-4 0  9994
2 20577  82.9433  39.9303 0025991 320.4399  49.8228 13.74887736826020

Volg COSMOS 2074 in realtime met AllMySat

Download on the App Store